Petersburg, WV

8:44 PM EDT on May 26, 2017 (GMT -0400)
Petersburg

Weather History for KW99 - November, 2011

Change the Weather History Date:

Tuesday, November 22, 2011

  Actual Average (KEKN) Record (KEKN)
Temperature  
Mean Temperature 47 °F -  
Max Temperature 50 °F 49 °F 73 °F (1931)
Min Temperature 44 °F 26 °F 5 °F (1987)
Degree Days  
Heating Degree Days 18    
Moisture  
Dew Point 45 °F    
Average Humidity 92    
Maximum Humidity 93    
Minimum Humidity 87    
Precipitation  
Precipitation 0.42 in - - ()
Sea Level Pressure  
Sea Level Pressure 30.13 in    
Wind  
Wind Speed 1 mph (North)    
Max Wind Speed 4 mph    
Max Gust Speed -    
Visibility 7 miles    
Events Rain    
Averages and records for this station are not official NWS values.
T = Trace of Precipitation, MM = Missing Value Source: NWS Daily Summary

Daily Weather History Graph

Daily Weather History Graph

Search for Another Location

Airport or City:

Trip Planner

Search our weather history database for the weather conditions in past years. The results will help you decide how hot, cold, wet, or windy it might be!

Date:

Astronomy

Nov. 22, 2011 Rise Set
Actual Time 7:06 AM EST 4:58 PM EST
Civil Twilight 6:37 AM EST 5:27 PM EST
Nautical Twilight 6:05 AM EST 5:59 PM EST
Astronomical Twilight 5:33 AM EST 6:31 PM EST
Moon 3:56 AM EST (11/22) 2:55 PM EST (11/22)
Length of Visible Light 10h 49m
Length of Day
9h 51m
Waning Crescent, 9% of the Moon is Illuminated
Nov 22
Waning Crescent
Nov 25
New
Dec 2
First Quarter
Dec 10
Full
Dec 17
Last Quarter

Hourly Weather History & Observations

Time (EST) Temp. Windchill Dew Point Humidity Pressure Visibility Wind Dir Wind Speed Gust Speed Precip Events Conditions
12:15 AM 50.0 °F - 46.4 °F 87% 30.24 in 7.0 mi Calm Calm - 0.01 in   Overcast
12:35 AM 50.0 °F - 46.4 °F 87% 30.24 in 10.0 mi Calm Calm - 0.01 in Rain Light Rain
12:55 AM 50.0 °F - 46.4 °F 87% 30.24 in 5.0 mi Calm Calm - 0.01 in Rain Rain
1:15 AM 50.0 °F - 46.4 °F 87% 30.23 in 7.0 mi Calm Calm - N/A   Overcast
1:35 AM 50.0 °F - 46.4 °F 87% 30.24 in 10.0 mi NNW 3.5 mph - 0.01 in   Overcast
1:55 AM 50.0 °F - 46.4 °F 87% 30.23 in 10.0 mi Calm Calm - 0.01 in   Overcast
2:15 AM 50.0 °F - 46.4 °F 87% 30.23 in 10.0 mi Calm Calm - N/A   Overcast
2:35 AM 48.2 °F - 46.4 °F 93% 30.24 in 7.0 mi North 3.5 mph - N/A   Overcast
2:55 AM 48.2 °F - 46.4 °F 93% 30.24 in 5.0 mi North 3.5 mph - N/A   Overcast
3:15 AM 48.2 °F - 46.4 °F 93% 30.24 in 5.0 mi Calm Calm - N/A   Overcast
3:35 AM 48.2 °F - 46.4 °F 93% 30.23 in 7.0 mi Calm Calm - N/A   Overcast
3:55 AM 48.2 °F - 46.4 °F 93% 30.23 in 5.0 mi Calm Calm - N/A Rain Light Rain
4:15 AM 46.4 °F - 44.6 °F 93% 30.23 in 5.0 mi Calm Calm - 0.01 in Rain Light Rain
4:35 AM 46.4 °F - 44.6 °F 93% 30.23 in 5.0 mi Calm Calm - 0.01 in Rain Rain
4:55 AM 46.4 °F - 44.6 °F 93% 30.23 in 7.0 mi Calm Calm - 0.02 in   Overcast
5:15 AM 48.2 °F - 44.6 °F 87% 30.23 in 10.0 mi Calm Calm - N/A   Overcast
5:35 AM 48.2 °F - 44.6 °F 87% 30.23 in 10.0 mi Calm Calm - N/A   Overcast
5:55 AM 46.4 °F - 44.6 °F 93% 30.23 in 10.0 mi Calm Calm - N/A   Overcast
6:15 AM 46.4 °F - 44.6 °F 93% 30.23 in 7.0 mi Calm Calm - N/A   Overcast
6:35 AM 46.4 °F - 44.6 °F 93% 30.24 in 7.0 mi Calm Calm - N/A   Overcast
7:15 AM 46.4 °F - 44.6 °F 93% 30.23 in 7.0 mi Calm Calm - N/A   Overcast
7:55 AM 46.4 °F 45.2 °F 44.6 °F 93% 30.24 in 5.0 mi North 3.5 mph - N/A   Overcast
8:15 AM 46.4 °F 45.2 °F 44.6 °F 93% 30.25 in 4.0 mi North 3.5 mph - N/A   Overcast
8:35 AM 46.4 °F 45.2 °F 44.6 °F 93% 30.24 in 2.0 mi North 3.5 mph - N/A   Overcast
8:55 AM 46.4 °F 45.2 °F 44.6 °F 93% 30.24 in 1.8 mi North 3.5 mph - N/A   Overcast
9:15 AM 46.4 °F - 44.6 °F 93% 30.23 in 1.2 mi Calm Calm - N/A   Overcast
9:35 AM 46.4 °F 45.2 °F 44.6 °F 93% 30.23 in 1.5 mi North 3.5 mph - N/A   Light Drizzle
9:55 AM 46.4 °F 45.2 °F 44.6 °F 93% 30.23 in 2.0 mi North 3.5 mph - N/A Rain Light Rain
10:15 AM 46.4 °F 45.2 °F 44.6 °F 93% 30.22 in 3.0 mi North 3.5 mph - N/A Rain Light Rain
10:35 AM 46.4 °F - 44.6 °F 93% 30.21 in 7.0 mi Calm Calm - N/A Rain Light Rain
10:55 AM 46.4 °F 45.2 °F 44.6 °F 93% 30.20 in 10.0 mi NNE 3.5 mph - 0.01 in Rain Light Rain
11:15 AM 46.4 °F - 44.6 °F 93% 30.20 in 4.0 mi Calm Calm - 0.04 in Rain Rain
11:35 AM 46.4 °F - 44.6 °F 93% 30.18 in 4.0 mi Calm Calm - 0.09 in Rain Rain
11:55 AM 46.4 °F - 44.6 °F 93% 30.18 in 4.0 mi Calm Calm - 0.12 in Rain Rain
12:15 PM 46.4 °F - 44.6 °F 93% 30.16 in 4.0 mi Calm Calm - 0.04 in Rain Light Rain
12:35 PM 46.4 °F - 42.8 °F 87% 30.15 in 5.0 mi Calm Calm - 0.07 in Rain Rain
1:15 PM 44.6 °F - 41.0 °F 87% 30.13 in 1.0 mi Calm Calm - 0.08 in   Overcast
1:35 PM 44.6 °F - 42.8 °F 93% 30.12 in 10.0 mi Calm Calm - 0.11 in Rain Light Rain
1:55 PM 44.6 °F - 41.0 °F 87% 30.11 in 7.0 mi Calm Calm - 0.12 in Rain Rain
2:35 PM 44.6 °F - 42.8 °F 93% 30.09 in 10.0 mi Calm Calm - 0.01 in   Drizzle
2:55 PM 46.4 °F - 42.8 °F 87% 30.07 in 10.0 mi Calm Calm - 0.01 in   Drizzle
3:15 PM 46.4 °F - 44.6 °F 93% 30.07 in 10.0 mi Calm Calm - N/A Rain Light Rain
3:35 PM 46.4 °F - 44.6 °F 93% 30.06 in 5.0 mi Calm Calm - 0.01 in Rain Light Rain
3:55 PM 46.4 °F - 44.6 °F 93% 30.05 in 10.0 mi Calm Calm - 0.01 in   Light Drizzle
4:15 PM 46.4 °F - 44.6 °F 93% 30.04 in 10.0 mi Calm Calm - N/A   Overcast
4:35 PM 46.4 °F - 44.6 °F 93% 30.04 in 10.0 mi Calm Calm - N/A   Overcast
4:55 PM 46.4 °F - 44.6 °F 93% 30.02 in 10.0 mi Calm Calm - N/A   Overcast
5:15 PM 46.4 °F - 44.6 °F 93% 30.02 in 10.0 mi Calm Calm - N/A   Overcast
5:35 PM 46.4 °F - 44.6 °F 93% 30.01 in 10.0 mi Calm Calm - N/A   Overcast
5:55 PM 46.4 °F - 44.6 °F 93% 30.00 in 10.0 mi Calm Calm - N/A   Overcast
6:15 PM 46.4 °F - 44.6 °F 93% 30.00 in 10.0 mi Calm Calm - N/A   Overcast
6:35 PM 46.4 °F - 44.6 °F 93% 29.99 in 10.0 mi Calm Calm - N/A   Overcast
6:55 PM 46.4 °F - 44.6 °F 93% 29.97 in 10.0 mi Calm Calm - N/A   Overcast
7:15 PM 46.4 °F - 44.6 °F 93% 29.96 in 10.0 mi Calm Calm - N/A   Overcast
7:35 PM 46.4 °F - 44.6 °F 93% 29.95 in 10.0 mi Calm Calm - N/A   Overcast
7:55 PM 46.4 °F - 44.6 °F 93% 29.95 in 10.0 mi Calm Calm - N/A   Overcast
8:15 PM 46.4 °F - 44.6 °F 93% 29.94 in 10.0 mi Calm Calm - N/A Rain Rain
8:35 PM 46.4 °F - 44.6 °F 93% 29.92 in 10.0 mi Calm Calm - 0.01 in Rain Light Rain
8:55 PM 46.4 °F - 44.6 °F 93% 29.92 in 10.0 mi Calm Calm - 0.01 in Rain Light Rain
9:15 PM 46.4 °F - 44.6 °F 93% 29.90 in 10.0 mi Calm Calm - N/A Rain Rain
9:35 PM 46.4 °F - 44.6 °F 93% 29.88 in 7.0 mi Calm Calm - 0.02 in Rain Light Rain
9:55 PM 46.4 °F - 44.6 °F 93% 29.87 in 7.0 mi Calm Calm - 0.03 in   Drizzle
10:15 PM 46.4 °F - 44.6 °F 93% 29.85 in 5.0 mi Calm Calm - 0.01 in Rain Rain
10:35 PM 46.4 °F - 44.6 °F 93% 29.84 in 7.0 mi Calm Calm - 0.05 in Rain Rain
10:55 PM 46.4 °F - 44.6 °F 93% 29.82 in 4.0 mi Calm Calm - 0.10 in Rain Rain
11:15 PM 46.4 °F - 44.6 °F 93% 29.82 in 5.0 mi Calm Calm - 0.02 in Rain Light Rain
11:35 PM 46.4 °F - 44.6 °F 93% 29.81 in 7.0 mi Calm Calm - 0.04 in Rain Light Rain
11:55 PM 44.6 °F - 42.8 °F 93% 29.81 in 7.0 mi Calm Calm - 0.06 in Rain Rain